[[{"header":{"parameterUnit":"m.s-1","parameterCategory":1,"la1":30.2991,"la2":30.254,"lo1":-89.0895,"lo2":-89.0444,"dy":0.0017,"dx":0.0017,"nx":28,"ny":28,"refTime":"2025-03-26T09:00:00:Z","depth":0,"parameterNumber":2,"parameterNumberName":"U-component_of_WINDS"},"data":[0,0,0,0,0,0,0,0,0,0,0,0,0,0,0,0,0,0,0,0,0,0,0,0,0,0,0,0,0,0,0,0,0,0,0,0,0,0,0,0,0,0,0,0,0,0,0,0,0,0,0,0,0,0,0,0,0,0,-3.9002,-3.9002,0,-3.9038,-3.9039,-3.9039,-3.8959,-3.8956,-3.8953,-3.8951,-3.8989,-3.8992,-3.8996,0,0,0,0,0,0,0,0,0,0,0,0,0,-3.8864,-3.8867,-3.9002,-3.9002,-3.9003,-3.9038,-3.9039,-3.9039,-3.8959,-3.8956,-3.8953,-3.895,-3.8988,-3.8992,-3.8996,0,0,0,0,0,0,0,0,0,0,0,0,0,-3.8914,-3.8868,-3.9002,-3.8967,-3.8964,-3.9038,-3.9039,-3.9039,-3.896,-3.8956,-3.8952,-3.8948,-3.8987,-3.8992,-3.8997,-3.9106,0,0,-3.9012,-3.9015,0,0,0,0,0,0,0,0,-3.8912,-3.892,-3.8971,-3.8969,-3.8966,-3.899,-3.9004,-3.9062,-3.8961,-3.8961,-3.8951,-3.8946,-3.8993,-3.8997,-3.9012,-3.9108,-3.911,-3.9013,-3.9016,-3.9018,-3.902,0,0,0,0,0,0,0,-3.8908,-3.8918,-3.9016,-3.8972,-3.8969,-3.895,-3.8953,-3.9015,-3.8998,-3.8961,-3.8955,-3.8961,-3.899,-3.9008,-3.9013,-3.911,-3.9013,-3.9017,-3.9021,-3.9023,-3.9298,-3.9302,0,0,0,0,0,0,-3.8909,-3.8915,-3.9015,-3.9017,-3.8929,-3.8956,-3.8959,-3.8986,-3.8997,-3.8995,-3.8964,-3.8957,-3.9001,-3.9007,-3.9014,-3.9142,-3.9018,-3.9023,-3.9026,-3.9294,-3.9299,-3.9304,0,0,0,0,0,0,-3.8906,-3.8919,-3.9013,-3.8965,-3.8975,-3.8962,-3.8994,-3.8989,-3.9006,-3.9,-3.8996,-3.8984,-3.8998,-3.9006,-3.9084,-3.9142,-3.9025,-3.903,-3.9289,-3.9295,-3.9301,-3.94,0,0,0,0,0,0,-3.8903,-3.8918,-3.8959,-3.8966,-3.8978,-3.9083,-3.8997,-3.8993,-3.9015,-3.9006,-3.9018,-3.9016,-3.8996,-3.9077,-3.9089,-3.9147,-3.9034,-3.9283,-3.9292,-3.9299,-3.9392,-3.9409,-3.9424,0,0,0,0,0,-3.8898,-3.8986,-3.8962,-3.8974,-3.9029,-3.9086,-3.9093,-3.9067,-3.902,-3.9061,-3.9057,-3.9016,-3.9135,-3.9085,-3.9098,-3.9159,-3.928,-3.9289,-3.9299,-3.9384,-3.9406,-3.9424,0,0,0,0,0,0,-3.8986,-3.8986,-3.8959,-3.9052,-3.907,-3.9072,-3.9123,-3.9091,-3.9122,-3.9113,-3.908,-3.9083,-3.9167,-3.9171,-3.9116,-3.9266,-3.9199,-3.9212,-3.926,-3.928,-3.9296,-3.9293,-3.9038,0,0,0,0,0,-3.9016,-3.9062,-3.906,-3.9142,-3.9152,-3.9137,-3.9161,-3.914,-3.9157,-3.9164,-3.9165,-3.9184,-3.9225,-3.9253,-3.9291,-3.9393,-3.9394,-3.9441,-3.9458,-3.9471,-3.9482,-3.9536,-3.9556,-3.9335,-3.9335,-3.9335,0,0,-3.9079,-3.9085,-3.9116,-3.916,-3.9171,-3.922,-3.9144,-3.9198,-3.9234,-3.9172,-3.9245,-3.9247,-3.9266,-3.9356,-3.9396,-3.9362,-3.9544,-3.9483,-3.9494,-3.9497,-3.9548,-3.9569,-3.9587,-3.9341,-3.934,-3.9339,0,0,-3.9217,-3.9227,-3.9296,-3.9309,-3.9327,-3.9316,-3.9333,-3.9342,-3.9341,-3.9413,-3.9368,-3.9411,-3.9483,-3.9498,-3.9515,-3.9662,-3.9624,-3.9675,-3.9759,-3.9812,-3.983,-3.9845,-3.9896,-3.9915,-3.9686,-3.9687,-3.9687,0,-3.9293,-3.9364,-3.9335,-3.9393,-3.9414,-3.9361,-3.9431,-3.9445,-3.9475,-3.9491,-3.9453,-3.9543,-3.9551,-3.9644,-3.968,-3.9696,-3.9714,-3.9672,-3.983,-3.9845,-3.9858,-3.9907,-3.9927,-3.9693,-3.9692,-3.9691,-3.9691,0,-3.9455,-3.9505,-3.9559,-3.9589,-3.9616,-3.968,-3.9662,-3.9693,-3.967,-3.9664,-3.9739,-3.9748,-3.9787,-3.9808,-3.9786,-3.9898,-3.9876,-3.9835,-3.9766,-3.9886,-3.9931,-3.9949,-3.9701,-3.9699,-3.9697,-3.9696,0,0,-3.9648,-3.9662,-3.9682,-3.9695,-3.9712,-3.9751,-3.9813,-3.9851,-3.9878,-3.9901,-3.9952,-4.0015,-3.9977,-3.9997,-3.9976,-4.0023,-4.0138,-3.9976,-3.9976,-4.0004,-4.0261,-4.0291,-4.0313,-4.0114,-4.0118,-4.0121,-4.0259,0,-3.9784,-3.9889,-3.9866,-3.997,-4.0016,-3.9967,-4.0021,-4.0038,-4.0035,-4.0073,-4.007,-4.0114,-4.0061,-4.0073,-4.0117,-4.0115,-4.0189,-4.0105,-4.0161,-4.0163,-4.0155,-4.0336,-4.0368,-4.0498,-4.0277,-4.0279,-4.0282,0,-3.9956,-3.9985,-4.0094,-4.0104,-4.0122,-4.0171,-4.0204,-4.0242,-4.0261,-4.0255,-4.0278,-4.0249,-4.0311,-4.0244,-4.0328,-4.0272,-4.0294,-4.0297,-4.0301,-4.0304,-4.0228,-4.0343,-4.0539,-4.0558,-4.0309,-4.0307,-4.0305,0,-4.0084,-4.0151,-4.0224,-4.0237,-4.0251,-4.0287,-4.0294,-4.0309,-4.0333,-4.0363,-4.0378,-4.0415,-4.0435,-4.0464,-4.0447,-4.0399,-4.0534,-4.0466,-4.0531,-4.0531,-4.0559,-4.0558,-4.0761,-4.0577,-4.0577,-4.0577,-4.0576,0,-4.0237,-4.0305,-4.0282,-4.0327,-4.0402,-4.0376,-4.0451,-4.0453,-4.0467,-4.0512,-4.0473,-4.0516,-4.0491,-4.0532,-4.0519,-4.0591,-4.06,-4.0597,-4.0593,-4.06,-4.06,-4.0612,-4.0602,-4.0582,-4.0581,-4.058,-4.0579,0,-4.0391,-4.0379,-4.0455,-4.0463,-4.0467,-4.0521,-4.0528,-4.057,-4.0564,-4.0622,-4.0634,-4.0625,-4.0672,-4.0658,-4.0708,-4.0699,-4.079,-4.0775,-4.0784,-4.0779,-4.0845,-4.0838,-4.1061,-4.1089,-4.0889,-4.0891,-4.0893,0,-4.0489,-4.054,-4.0553,-4.058,-4.0591,-4.0635,-4.066,-4.0637,-4.0665,-4.069,-4.073,-4.0773,-4.0806,-4.0884,-4.0882,-4.0921,-4.0905,-4.0981,-4.091,-4.0916,-4.0904,-4.0901,-4.0906,-4.0994,-4.0996,-4.0998,-4.0999,0,-4.0663,-4.0654,-4.0691,-4.0727,-4.0758,-4.0785,-4.0808,-4.0833,-4.0812,-4.0845,-4.0892,-4.0918,-4.097,-4.1014,-4.1049,-4.1057,-4.1025,-4.1022,-4.1039,-4.1046,-4.1048,-4.1046,-4.082,-4.1016,-4.1015,-4.1013,-4.1012,-4.1012,-4.0791,-4.0834,-4.085,-4.0893,-4.0908,-4.0931,-4.0971,-4.0971,-4.101,-4.105,-4.1035,-4.1089,-4.1107,-4.1152,-4.1165,-4.1207,-4.1178,-4.1203,-4.1209,-4.1215,-4.1223,-4.1043,-4.1214,-4.1213,-4.1213,-4.1213,-4.1212,0,-4.0961,-4.097,-4.101,-4.1044,-4.1078,-4.1045,-4.107,-4.11,-4.1149,-4.1168,-4.1202,-4.1257,-4.1299,-4.1302,-4.1342,-4.1375,-4.1361,-4.1386,-4.1383,-4.1385,-4.1247,-4.1228,-4.1397,-4.1397,-4.1397,-4.1397,-4.1397,-4.1397,-4.1054,-4.1125,-4.1119,-4.1198,-4.1206,-4.1258,-4.1275,-4.1297,-4.1312,-4.1375,-4.141,-4.1411,-4.1424,-4.1465,-4.1503,-4.1502,-4.1518,-4.1549,-4.1543,-4.1413,-4.1395,-4.1377,-4.1359,-4.1553,-4.1553,-4.1677,-4.1678,-4.1679]},{"header":{"parameterUnit":"m.s-1","parameterCategory":1,"la1":30.2991,"la2":30.254,"lo1":-89.0895,"lo2":-89.0444,"dy":0.0017,"dx":0.0017,"nx":28,"ny":28,"refTime":"2025-03-26T09:00:00:Z","depth":0,"parameterNumber":3,"parameterNumberName":"V-component_of_WINDS"},"data":[0,0,0,0,0,0,0,0,0,0,0,0,0,0,0,0,0,0,0,0,0,0,0,0,0,0,0,0,0,0,0,0,0,0,0,0,0,0,0,0,0,0,0,0,0,0,0,0,0,0,0,0,0,0,0,0,0,0,0.8649,0.8651,0,0.8752,0.8754,0.8755,0.8831,0.8832,0.8833,0.8833,0.8938,0.894,0.8942,0,0,0,0,0,0,0,0,0,0,0,0,0,0.852,0.8522,0.8649,0.8651,0.8652,0.8752,0.8754,0.8755,0.8831,0.8832,0.8833,0.8834,0.8937,0.894,0.8942,0,0,0,0,0,0,0,0,0,0,0,0,0,0.8595,0.8523,0.8649,0.8702,0.8708,0.8752,0.8754,0.8756,0.8831,0.8832,0.8833,0.8834,0.8936,0.8939,0.8943,0.8942,0,0,0.8953,0.8954,0,0,0,0,0,0,0,0,0.8591,0.86,0.8693,0.8698,0.8705,0.878,0.8747,0.8818,0.8831,0.8784,0.8833,0.8834,0.8884,0.8892,0.8909,0.8947,0.8952,0.8953,0.8955,0.8956,0.8957,0,0,0,0,0,0,0,0.8585,0.8596,0.869,0.8694,0.8702,0.8721,0.8733,0.8761,0.8827,0.8788,0.8794,0.8805,0.8888,0.8906,0.8912,0.8953,0.8953,0.8956,0.8958,0.8959,0.9,0.8999,0,0,0,0,0,0,0.8572,0.8591,0.8687,0.8693,0.8649,0.8723,0.8736,0.8755,0.8827,0.8839,0.8804,0.8808,0.89,0.8908,0.8916,0.8923,0.8956,0.8959,0.8961,0.9001,0.9,0.8999,0,0,0,0,0,0,0.8569,0.858,0.8683,0.8644,0.8658,0.8724,0.8745,0.8756,0.8774,0.8839,0.8852,0.881,0.8901,0.8912,0.8936,0.8927,0.8961,0.8964,0.9002,0.9001,0.8999,0.8934,0,0,0,0,0,0,0.8565,0.8578,0.8578,0.8643,0.866,0.87,0.8744,0.8758,0.878,0.8786,0.8848,0.8859,0.8903,0.8931,0.8939,0.8932,0.8966,0.9003,0.9001,0.9,0.8938,0.8931,0.8925,0,0,0,0,0,0.856,0.8555,0.8578,0.8589,0.8661,0.8699,0.8709,0.8759,0.8779,0.878,0.8822,0.8857,0.8927,0.8933,0.8943,0.8937,0.9004,0.9002,0.9,0.894,0.8932,0.8926,0,0,0,0,0,0,0.8486,0.8564,0.859,0.8606,0.8646,0.8712,0.8715,0.8749,0.8783,0.8788,0.8848,0.8862,0.888,0.8911,0.8916,0.8942,0.897,0.897,0.8921,0.8914,0.8908,0.89,0.8969,0,0,0,0,0,0.8471,0.8495,0.8563,0.857,0.8589,0.8648,0.8667,0.8702,0.8746,0.8763,0.8807,0.8847,0.8879,0.8898,0.8931,0.8943,0.8958,0.8944,0.8938,0.8932,0.8932,0.8943,0.8938,0.8993,0.8993,0.8993,0,0,0.8441,0.8487,0.8499,0.8557,0.8591,0.8616,0.8662,0.8685,0.8705,0.8766,0.8793,0.8827,0.8876,0.8895,0.8906,0.8922,0.892,0.893,0.8925,0.8928,0.8941,0.8935,0.8931,0.8991,0.8992,0.8992,0,0,0.84,0.8436,0.8448,0.8483,0.8535,0.8576,0.8578,0.8641,0.8666,0.8694,0.8742,0.8766,0.8818,0.8852,0.8876,0.8852,0.8886,0.886,0.8829,0.8839,0.8835,0.8831,0.8824,0.882,0.886,0.8859,0.8859,0,0.8356,0.8395,0.8449,0.8471,0.8496,0.8554,0.8567,0.8598,0.8658,0.8675,0.8692,0.8761,0.8798,0.8827,0.8822,0.8839,0.8845,0.8853,0.8831,0.8828,0.8825,0.8819,0.8816,0.8856,0.8856,0.8857,0.8857,0,0.8339,0.8366,0.8369,0.8427,0.8452,0.8469,0.8527,0.8547,0.8581,0.8619,0.8648,0.8696,0.874,0.875,0.8782,0.8785,0.8793,0.8819,0.8849,0.8816,0.8811,0.8809,0.8851,0.8852,0.8853,0.8854,0,0,0.8252,0.8343,0.8343,0.8371,0.8435,0.8457,0.8478,0.8522,0.8538,0.8579,0.8599,0.8643,0.8669,0.8697,0.8734,0.8743,0.8723,0.8769,0.8771,0.876,0.8731,0.8711,0.8707,0.8747,0.8746,0.8746,0.8727,0,0.8221,0.8262,0.8313,0.8336,0.8362,0.842,0.8438,0.848,0.8517,0.8546,0.8588,0.8619,0.865,0.8667,0.8679,0.8723,0.8718,0.8725,0.8767,0.8767,0.8753,0.8704,0.8683,0.8662,0.8725,0.8725,0.8725,0,0.819,0.8229,0.8255,0.832,0.8333,0.8348,0.8395,0.8421,0.847,0.8497,0.853,0.8571,0.8597,0.8623,0.8661,0.8665,0.8685,0.871,0.8711,0.8717,0.8744,0.871,0.8657,0.8654,0.8722,0.8723,0.8723,0,0.8126,0.8185,0.8209,0.8231,0.8307,0.8317,0.8349,0.8399,0.8424,0.8464,0.8481,0.8524,0.8547,0.858,0.8632,0.8646,0.8665,0.8695,0.869,0.8688,0.8691,0.869,0.8641,0.8702,0.8702,0.8702,0.8703,0,0.8086,0.81,0.8181,0.8196,0.8214,0.8274,0.829,0.8328,0.8373,0.8397,0.8449,0.8471,0.8538,0.8568,0.8609,0.8636,0.8645,0.8669,0.8679,0.8664,0.8661,0.8679,0.8682,0.8702,0.8702,0.8702,0.8702,0,0.8017,0.8072,0.8102,0.8172,0.819,0.82,0.8261,0.8278,0.832,0.835,0.836,0.8425,0.8464,0.8519,0.8574,0.8602,0.8622,0.8639,0.8605,0.8612,0.8604,0.8604,0.8564,0.8563,0.8624,0.8623,0.8623,0,0.7988,0.8001,0.8073,0.8093,0.8124,0.8155,0.8181,0.8241,0.8266,0.8325,0.8335,0.8378,0.8415,0.8474,0.8526,0.8569,0.8588,0.8572,0.8595,0.858,0.859,0.8589,0.8591,0.8566,0.8565,0.8564,0.8563,0,0.7932,0.796,0.7995,0.804,0.807,0.8108,0.8149,0.8162,0.8232,0.8257,0.8297,0.8326,0.8384,0.8426,0.8476,0.851,0.8549,0.8556,0.8557,0.8542,0.8522,0.8534,0.8591,0.8556,0.8557,0.8558,0.8558,0.8558,0.7884,0.7899,0.7952,0.7991,0.8028,0.8066,0.8086,0.8131,0.8166,0.8218,0.8251,0.829,0.8343,0.8415,0.8447,0.848,0.8495,0.8496,0.8497,0.8497,0.8492,0.8517,0.8489,0.8489,0.8489,0.849,0.849,0,0.7832,0.787,0.7904,0.7961,0.7992,0.8026,0.8074,0.8097,0.8131,0.8177,0.8213,0.8261,0.8303,0.836,0.8406,0.8421,0.8441,0.8432,0.8431,0.8439,0.8474,0.8469,0.8416,0.8416,0.8416,0.8416,0.8416,0.8416,0.7808,0.7836,0.787,0.7918,0.7956,0.7995,0.802,0.8056,0.8093,0.8144,0.8179,0.8217,0.8268,0.8319,0.836,0.8376,0.8391,0.8377,0.8398,0.843,0.8436,0.8443,0.8438,0.8379,0.8379,0.8361,0.836,0.836]}]]